Location: Martin
(32.0982°N, 93.2193°W)
Time: 10:53:56
(UTC+00:00)

Hubble Space Telescope - Visible Passes

Search period start: 09 November 2025 00:00
Search period end: 19 November 2025 00:00
Orbit: 482 x 484 km, 28.5° (Epoch: 08 November)

Date Brightness Start Highest point End Pass type
(mag) Time Alt. Az. Time Alt. Az. Time Alt. Az.
15 Nov 3.3 11:52:24 10° SSW 11:54:38 15° SSE 11:56:52 10° ESE visible
16 Nov 3.2 11:23:39 10° SSW 11:25:56 15° SSE 11:28:13 10° ESE visible
17 Nov 3.0 10:55:41 13° S 10:57:13 16° SSE 10:59:33 10° ESE visible
18 Nov 3.2 10:29:03 15° SSE 10:29:03 15° SSE 10:30:52 10° ESE visible
18 Nov 1.8 12:04:28 10° WSW 12:08:00 37° S 12:11:32 10° E visible
